| time (UTC) | temp C | wind direction | speed KPH | gust KPH | rain 1hr cm | rain 24hr cm | rain mn cm | humidity % | barometer mb |
| 20260509190020 | 29 | 302 | 1.6 | 11.3 | 0.00 | 0.03 | 0.03 | 67 | 1010.5 |
| 20260509184532 | 28 | 92 | 1.6 | 8.0 | 0.00 | 0.03 | 0.03 | 68 | 1010.6 |
| 20260509183031 | 28 | 196 | 0.0 | 8.0 | 0.00 | 0.03 | 0.03 | 68 | 1010.8 |
| 20260509181517 | 28 | 5 | 0.0 | 16.1 | 0.00 | 0.03 | 0.03 | 70 | 1011.0 |
| 20260509180020 | 27 | 163 | 3.2 | 12.9 | 0.00 | 0.03 | 0.03 | 71 | 1011.2 |
| 20260509174520 | 27 | 244 | 1.6 | 11.3 | 0.00 | 0.03 | 0.03 | 72 | 1011.3 |
| 20260509173029 | 27 | 114 | 0.0 | 14.5 | 0.00 | 0.03 | 0.03 | 75 | 1011.5 |
| 20260509171535 | 26 | 127 | 0.0 | 11.3 | 0.00 | 0.03 | 0.03 | 77 | 1011.5 |
| 20260509170014 | 26 | 252 | 3.2 | 11.3 | 0.00 | 0.03 | 0.03 | 77 | 1011.5 |
| 20260509164521 | 26 | 142 | 1.6 | 11.3 | 0.00 | 0.03 | 0.03 | 79 | 1011.5 |
| 20260509163046 | 26 | 120 | 3.2 | 12.9 | 0.00 | 0.03 | 0.03 | 78 | 1011.6 |
| 20260509161531 | 25 | 118 | 0.0 | 6.4 | 0.00 | 0.03 | 0.03 | 81 | 1011.5 |
| 20260509160028 | 25 | 125 | 0.0 | 9.7 | 0.00 | 0.03 | 0.03 | 84 | 1011.4 |
| 20260509154518 | 23 | 225 | 0.0 | 11.3 | 0.00 | 0.03 | 0.03 | 89 | 1011.4 |
| 20260509153025 | 23 | 138 | 1.6 | 8.0 | 0.00 | 0.03 | 0.03 | 94 | 1011.4 |
| 20260509151524 | 22 | 137 | 0.0 | 3.2 | 0.00 | 0.03 | 0.03 | 95 | 1011.5 |
| 20260509150026 | 22 | 140 | 0.0 | 0.0 | 0.00 | 0.03 | 0.03 | 95 | 1011.7 |
| 20260509144526 | 22 | 160 | 0.0 | 0.0 | 0.00 | 0.03 | 0.03 | 95 | 1011.8 |
| 20260509143016 | 22 | 214 | 0.0 | 1.6 | 0.00 | 0.03 | 0.03 | 95 | 1012.0 |
| 20260509141527 | 22 | 246 | 0.0 | 1.6 | 0.00 | 0.03 | 0.03 | 95 | 1012.0 |
| 20260509140028 | 21 | 178 | 0.0 | 8.0 | 0.00 | 0.03 | 0.03 | 95 | 1011.9 |
| 20260509134526 | 21 | 182 | 0.0 | 4.8 | 0.00 | 0.03 | 0.03 | 96 | 1011.7 |
| 20260509133015 | 21 | 153 | 0.0 | 4.8 | 0.00 | 0.03 | 0.03 | 96 | 1011.7 |
| 20260509131518 | 21 | 168 | 0.0 | 1.6 | 0.00 | 0.03 | 0.03 | 97 | 1011.7 |
| 20260509130024 | 21 | 240 | 0.0 | 3.2 | 0.00 | 0.03 | 0.03 | 97 | 1011.7 |
| 20260509124507 | 21 | 236 | 0.0 | 3.2 | 0.00 | 0.03 | 0.03 | 97 | 1011.7 |
| 20260509123014 | 21 | 292 | 0.0 | 3.2 | 0.00 | 0.03 | 0.03 | 97 | 1011.5 |
| 20260509121530 | 21 | 160 | 0.0 | 4.8 | 0.00 | 0.03 | 0.03 | 97 | 1011.3 |
| 20260509120022 | 20 | 142 | 0.0 | 3.2 | 0.00 | 0.03 | 0.03 | 97 | 1011.0 |
| 20260509114546 | 20 | 136 | 0.0 | 4.8 | 0.00 | 0.03 | 0.03 | 97 | 1010.9 |
| 20260509113010 | 20 | 128 | 0.0 | 6.4 | 0.00 | 0.03 | 0.03 | 97 | 1010.8 |
| 20260509111516 | 20 | 229 | 1.6 | 12.9 | 0.00 | 0.03 | 0.03 | 96 | 1010.4 |
| 20260509110021 | 20 | 154 | 3.2 | 9.7 | 0.00 | 0.03 | 0.03 | 96 | 1009.9 |
| 20260509104522 | 20 | 122 | 1.6 | 9.7 | 0.00 | 0.03 | 0.03 | 96 | 1010.1 |
| 20260509103026 | 20 | 150 | 1.6 | 9.7 | 0.00 | 0.03 | 0.03 | 96 | 1010.1 |
| 20260509101510 | 20 | 132 | 0.0 | 6.4 | 0.00 | 0.03 | 0.03 | 96 | 1010.5 |
| 20260509100016 | 20 | 159 | 0.0 | 3.2 | 0.00 | 0.03 | 0.03 | 96 | 1010.5 |
| 20260509094525 | 20 | 140 | 0.0 | 1.6 | 0.00 | 0.03 | 0.03 | 96 | 1010.8 |
| 20260509093024 | 20 | 208 | 0.0 | 3.2 | 0.00 | 0.03 | 0.03 | 96 | 1010.9 |
| 20260509091527 | 20 | 156 | 0.0 | 1.6 | 0.00 | 0.03 | 0.03 | 95 | 1010.9 |
| 20260509090041 | 20 | 169 | 0.0 | 6.4 | 0.00 | 0.03 | 0.03 | 95 | 1010.6 |
| 20260509084524 | 20 | 155 | 0.0 | 3.2 | 0.00 | 0.03 | 0.03 | 95 | 1010.9 |
| 20260509083041 | 20 | 161 | 1.6 | 6.4 | 0.00 | 0.03 | 0.03 | 95 | 1011.0 |
| 20260509081529 | 20 | 194 | 0.0 | 1.6 | 0.00 | 0.03 | 0.03 | 95 | 1011.5 |
| 20260509080033 | 20 | 352 | 0.0 | 1.6 | 0.00 | 0.03 | 0.03 | 95 | 1011.6 |
| 20260509074528 | 20 | 355 | 0.0 | 1.6 | 0.03 | 0.03 | 0.03 | 95 | 1011.9 |
| 20260509073018 | 20 | 355 | 0.0 | 0.0 | 0.03 | 0.03 | 0.03 | 95 | 1011.7 |
| 20260509071507 | 20 | 352 | 0.0 | 0.0 | 0.03 | 0.03 | 0.03 | 94 | 1011.6 |
| 20260509070009 | 20 | 355 | 0.0 | 3.2 | 0.03 | 0.03 | 0.03 | 93 | 1011.4 |
| 20260509064514 | 20 | 120 | 1.6 | 9.7 | 0.00 | 0.00 | 0.00 | 92 | 1011.0 |
| 20260509063018 | 21 | 119 | 1.6 | 11.3 | 0.00 | 0.00 | 0.00 | 91 | 1011.2 |
| 20260509061521 | 21 | 156 | 1.6 | 6.4 | 0.00 | 0.00 | 0.00 | 89 | 1011.8 |
| 20260509060008 | 21 | 148 | 0.0 | 6.4 | 0.00 | 0.00 | 0.00 | 89 | 1012.3 |
| 20260509054512 | 21 | 127 | 0.0 | 6.4 | 0.00 | 0.00 | 0.00 | 89 | 1012.3 |
| 20260509053027 | 21 | 136 | 0.0 | 0.0 | 0.00 | 0.00 | 0.00 | 88 | 1012.4 |
| 20260509051522 | 21 | 136 | 0.0 | 1.6 | 0.00 | 0.00 | 0.00 | 88 | 1012.1 |
| 20260509050042 | 21 | 155 | 0.0 | 3.2 | 0.00 | 0.00 | 0.00 | 88 | 1011.8 |
| 20260509044508 | 21 | 120 | 0.0 | 3.2 | 0.00 | 0.00 | 0.00 | 88 | 1011.5 |
| 20260509043023 | 21 | 144 | 0.0 | 1.6 | 0.00 | 0.00 | 0.00 | 88 | 1011.5 |
| 20260509041520 | 21 | 123 | 0.0 | 4.8 | 0.00 | 0.00 | 0.00 | 87 | 1011.4 |
| 20260509040022 | 21 | 134 | 1.6 | 6.4 | 0.00 | 0.00 | 0.00 | 87 | 1011.0 |
| 20260509034526 | 21 | 155 | 0.0 | 3.2 | 0.00 | 0.00 | 0.00 | 86 | 1011.1 |
| 20260509033008 | 21 | 156 | 0.0 | 4.8 | 0.00 | 0.00 | 0.00 | 86 | 1011.2 |
| 20260509031516 | 21 | 140 | 0.0 | 4.8 | 0.00 | 0.00 | 0.00 | 85 | 1011.2 |
| 20260509030022 | 21 | 138 | 0.0 | 8.0 | 0.00 | 0.00 | 0.00 | 86 | 1010.9 |
| 20260509024528 | 21 | 114 | 0.0 | 0.0 | 0.00 | 0.00 | 0.00 | 87 | 1010.9 |
| 20260509023028 | 21 | 114 | 0.0 | 0.0 | 0.00 | 0.00 | 0.00 | 86 | 1010.5 |
| 20260509021511 | 21 | 114 | 0.0 | 0.0 | 0.00 | 0.00 | 0.00 | 86 | 1010.4 |
| 20260509020021 | 21 | 114 | 0.0 | 0.0 | 0.00 | 0.00 | 0.00 | 86 | 1010.4 |
| 20260509014524 | 21 | 114 | 0.0 | 0.0 | 0.00 | 0.00 | 0.00 | 84 | 1009.9 |
| 20260509013028 | 21 | 114 | 0.0 | 0.0 | 0.00 | 0.00 | 0.00 | 82 | 1009.9 |
| 20260509011527 | 22 | 144 | 0.0 | 0.0 | 0.00 | 0.00 | 0.00 | 80 | 1009.4 |
| 20260509010033 | 22 | 119 | 0.0 | 6.4 | 0.00 | 0.00 | 0.00 | 79 | 1009.5 |
| 20260509004521 | 22 | 88 | 0.0 | 6.4 | 0.00 | 0.00 | 0.00 | 78 | 1009.6 |
| 20260509003024 | 23 | 78 | 0.0 | 6.4 | 0.00 | 0.00 | 0.00 | 77 | 1009.5 |
| 20260509001528 | 23 | 124 | 0.0 | 11.3 | 0.00 | 0.00 | 0.00 | 76 | 1009.2 |
| 20260509000039 | 23 | 117 | 4.8 | 19.3 | 0.00 | 0.00 | 0.00 | 75 | 1009.1 |
| 20260508234527 | 23 | 126 | 6.4 | 16.1 | 0.00 | 0.00 | 0.00 | 74 | 1009.5 |
| 20260508233022 | 24 | 171 | 3.2 | 16.1 | 0.00 | 0.00 | 0.00 | 72 | 1009.5 |
| 20260508231524 | 25 | 104 | 1.6 | 14.5 | 0.00 | 0.00 | 0.00 | 71 | 1009.7 |
| 20260508230025 | 24 | 156 | 3.2 | 11.3 | 0.00 | 0.00 | 0.00 | 71 | 1010.3 |
| 20260508224548 | 24 | 115 | 0.0 | 11.3 | 0.00 | 0.00 | 0.00 | 71 | 1010.7 |
| 20260508223003 | 24 | 28 | 0.0 | 1.6 | 0.00 | 0.00 | 0.00 | 80 | 1010.7 |
| 20260508221504 | 23 | 115 | 0.0 | 11.3 | 0.00 | 0.00 | 0.00 | 75 | 1010.3 |
| 20260508220009 | 23 | 113 | 4.8 | 8.0 | 0.00 | 0.00 | 0.00 | 78 | 1010.4 |
| 20260508214517 | 23 | 246 | 0.0 | 1.6 | 0.00 | 0.00 | 0.00 | 78 | 1011.3 |
| 20260508213028 | 23 | 231 | 0.0 | 0.0 | 0.00 | 0.00 | 0.00 | 79 | 1010.8 |
| 20260508211504 | 25 | 71 | 0.0 | 8.0 | 0.00 | 0.00 | 0.00 | 72 | 1010.8 |
| 20260508210004 | 25 | 300 | 0.0 | 0.0 | 0.00 | 0.00 | 0.00 | 62 | 1010.9 |
| 20260508204511 | 26 | 146 | 4.8 | 14.5 | 0.00 | 0.00 | 0.00 | 59 | 1010.8 |
| 20260508203016 | 26 | 94 | 1.6 | 16.1 | 0.00 | 0.00 | 0.00 | 60 | 1010.7 |
| 20260508201518 | 26 | 82 | 3.2 | 14.5 | 0.00 | 0.00 | 0.00 | 61 | 1011.1 |
| 20260508200037 | 26 | 262 | 1.6 | 14.5 | 0.00 | 0.00 | 0.00 | 61 | 1011.5 |
| 20260508194512 | 25 | 108 | 3.2 | 11.3 | 0.00 | 0.00 | 0.00 | 62 | 1011.7 |
| 20260508193009 | 25 | 146 | 1.6 | 11.3 | 0.00 | 0.00 | 0.00 | 60 | 1011.9 |
| 20260508191518 | 25 | 136 | 3.2 | 11.3 | 0.00 | 0.00 | 0.00 | 60 | 1012.0 |